Time,TemperatureF,DewpointF,PressureIn,WindDirection,WindDirectionDegrees,WindSpeedMPH,WindSpeedGustMPH,Humidity,HourlyPrecipIn,Conditions,Clouds,dailyrainin,SoftwareType,DateUTC
2013-03-11 00:02:00,36.5,17.7,30.12,SW,230,3.6,5.4,46,0.00,,---,0.00,VWS V12.07,2013-03-11 04:02:00,
2013-03-11 00:10:00,36.5,18.2,30.12,SSW,200,4.0,5.4,47,0.00,,---,0.00,VWS V12.07,2013-03-11 04:10:00,
2013-03-11 00:14:00,36.5,18.2,30.12,WSW,237,3.1,4.9,47,0.00,,---,0.00,VWS V12.07,2013-03-11 04:14:00,
2013-03-11 00:22:00,36.7,18.4,30.12,WSW,237,0.0,4.9,47,0.00,,---,0.00,VWS V12.07,2013-03-11 04:22:00,
2013-03-11 00:26:00,36.5,18.2,30.12,WSW,237,4.0,4.9,47,0.00,,---,0.00,VWS V12.07,2013-03-11 04:26:00,
2013-03-11 00:34:00,36.5,18.2,30.12,WSW,237,4.0,4.0,47,0.00,,---,0.00,VWS V12.07,2013-03-11 04:34:00,
2013-03-11 00:41:00,36.7,18.9,30.12,WSW,241,2.7,5.4,48,0.00,,---,0.00,VWS V12.07,2013-03-11 04:41:00,
2013-03-11 00:49:00,36.7,18.9,30.12,SW,234,3.6,4.0,48,0.00,,---,0.00,VWS V12.07,2013-03-11 04:49:00,
2013-03-11 01:00:00,36.7,18.9,30.12,WSW,245,3.6,3.6,48,0.00,,---,0.00,VWS V12.07,2013-03-11 05:00:00,
2013-03-11 01:07:00,36.7,19.3,30.12,SW,222,3.6,5.4,49,0.00,,---,0.00,VWS V12.07,2013-03-11 05:07:00,
2013-03-11 01:15:00,36.7,19.3,30.12,SE,124,0.0,3.6,49,0.00,,---,0.00,VWS V12.07,2013-03-11 05:15:00,
2013-03-11 01:23:00,36.7,19.3,30.09,SW,234,3.6,6.3,49,0.00,,---,0.00,VWS V12.07,2013-03-11 05:23:00,
2013-03-11 01:30:00,36.5,19.2,30.09,SW,236,2.2,4.0,49,0.00,,---,0.00,VWS V12.07,2013-03-11 05:30:00,
2013-03-11 01:37:00,36.5,19.2,30.12,WSW,246,3.6,4.0,49,0.00,,---,0.00,VWS V12.07,2013-03-11 05:37:00,
2013-03-11 01:45:00,36.5,19.6,30.12,WSW,253,2.2,3.1,50,0.00,,---,0.00,VWS V12.07,2013-03-11 05:45:00,
2013-03-11 01:54:00,36.5,19.6,30.12,SW,233,3.1,8.3,50,0.00,,---,0.00,VWS V12.07,2013-03-11 05:54:00,
2013-03-11 02:01:00,36.5,19.6,30.12,SW,221,2.7,6.3,50,0.00,,---,0.00,VWS V12.07,2013-03-11 06:01:00,
2013-03-11 02:08:00,36.5,19.6,30.12,SW,222,2.7,6.3,50,0.00,,---,0.00,VWS V12.07,2013-03-11 06:08:00,
2013-03-11 02:15:00,36.5,19.6,30.12,SW,222,2.2,4.0,50,0.00,,---,0.00,VWS V12.07,2013-03-11 06:15:00,
2013-03-11 02:22:00,36.5,19.6,30.12,WSW,251,3.6,4.0,50,0.00,,---,0.00,VWS V12.07,2013-03-11 06:22:00,
2013-03-11 02:29:00,36.5,19.6,30.12,SW,220,0.0,3.1,50,0.00,,---,0.00,VWS V12.07,2013-03-11 06:29:00,
2013-03-11 02:37:00,36.5,19.6,30.12,SE,145,3.1,5.8,50,0.00,,---,0.00,VWS V12.07,2013-03-11 06:37:00,
2013-03-11 02:44:00,36.5,19.6,30.12,SW,222,4.9,4.9,50,0.00,,---,0.00,VWS V12.07,2013-03-11 06:44:00,
2013-03-11 02:52:00,36.5,19.6,30.12,WSW,254,3.6,8.3,50,0.00,,---,0.00,VWS V12.07,2013-03-11 06:52:00,
2013-03-11 03:00:00,36.5,19.6,30.12,WSW,248,3.1,5.4,50,0.00,,---,0.00,VWS V12.07,2013-03-11 07:00:00,
2013-03-11 03:08:00,36.3,19.5,30.09,SW,233,3.1,5.4,50,0.00,,---,0.00,VWS V12.07,2013-03-11 07:08:00,
2013-03-11 03:16:00,36.3,19.5,30.09,WSW,237,4.9,6.3,50,0.00,,---,0.00,VWS V12.07,2013-03-11 07:16:00,
2013-03-11 03:24:00,36.3,19.5,30.09,WSW,250,2.2,6.3,50,0.00,,---,0.00,VWS V12.07,2013-03-11 07:24:00,
2013-03-11 03:32:00,36.3,19.5,30.09,SW,234,3.1,3.6,50,0.00,,---,0.00,VWS V12.07,2013-03-11 07:32:00,
2013-03-11 03:40:00,36.3,19.5,30.06,SSE,163,2.7,4.5,50,0.00,,---,0.00,VWS V12.07,2013-03-11 07:40:00,
2013-03-11 03:47:00,36.1,19.3,30.06,WSW,237,0.0,3.6,50,0.00,,---,0.00,VWS V12.07,2013-03-11 07:47:00,
2013-03-11 03:54:00,36.1,19.3,30.06,West,262,5.8,5.8,50,0.00,,---,0.00,VWS V12.07,2013-03-11 07:54:00,
2013-03-11 04:02:00,36.1,19.3,30.06,WSW,257,3.6,5.8,50,0.00,,---,0.00,VWS V12.07,2013-03-11 08:02:00,
2013-03-11 04:09:00,36.0,19.6,30.06,SW,225,4.0,6.7,51,0.00,,---,0.00,VWS V12.07,2013-03-11 08:09:00,
2013-03-11 04:16:00,36.0,19.6,30.06,West,261,4.0,5.8,51,0.00,,---,0.00,VWS V12.07,2013-03-11 08:16:00,
2013-03-11 04:24:00,36.0,19.6,30.06,West,261,7.6,7.6,51,0.00,,---,0.00,VWS V12.07,2013-03-11 08:24:00,
2013-03-11 04:32:00,36.0,19.6,30.06,WSW,253,4.9,8.3,51,0.00,,---,0.00,VWS V12.07,2013-03-11 08:32:00,
2013-03-11 04:40:00,36.0,19.6,30.09,SSW,212,3.6,8.3,51,0.00,,---,0.00,VWS V12.07,2013-03-11 08:40:00,
2013-03-11 04:46:00,36.0,19.6,30.09,SSW,203,3.1,4.9,51,0.00,,---,0.00,VWS V12.07,2013-03-11 08:46:00,
2013-03-11 04:54:00,35.8,19.4,30.06,West,278,2.7,5.4,51,0.00,,---,0.00,VWS V12.07,2013-03-11 08:54:00,
2013-03-11 05:02:00,35.8,19.4,30.06,SW,231,3.6,8.1,51,0.00,,---,0.00,VWS V12.07,2013-03-11 09:02:00,
2013-03-11 05:10:00,35.8,19.4,30.06,West,259,4.0,8.1,51,0.00,,---,0.00,VWS V12.07,2013-03-11 09:10:00,
2013-03-11 05:17:00,35.8,19.4,30.06,SW,229,2.7,3.6,51,0.00,,---,0.00,VWS V12.07,2013-03-11 09:17:00,
2013-03-11 05:25:00,35.8,19.4,30.06,SW,229,3.1,5.4,51,0.00,,---,0.00,VWS V12.07,2013-03-11 09:25:00,
2013-03-11 05:32:00,35.8,19.4,30.06,WSW,237,3.6,4.9,51,0.00,,---,0.00,VWS V12.07,2013-03-11 09:32:00,
2013-03-11 05:40:00,35.8,19.4,30.06,WSW,253,4.9,7.6,51,0.00,,---,0.00,VWS V12.07,2013-03-11 09:40:00,
2013-03-11 05:48:00,35.8,19.4,30.06,SW,234,3.1,4.9,51,0.00,,---,0.00,VWS V12.07,2013-03-11 09:48:00,
2013-03-11 05:56:00,35.8,19.4,30.06,SW,216,3.6,5.8,51,0.00,,---,0.00,VWS V12.07,2013-03-11 09:56:00,
2013-03-11 06:02:00,35.8,19.4,30.06,SW,222,4.0,6.3,51,0.00,,---,0.00,VWS V12.07,2013-03-11 10:02:00,
2013-03-11 06:09:00,35.6,19.3,30.06,SW,230,2.7,7.2,51,0.00,,---,0.00,VWS V12.07,2013-03-11 10:09:00,
2013-03-11 06:16:00,35.6,19.3,30.06,WSW,256,4.0,4.9,51,0.00,,---,0.00,VWS V12.07,2013-03-11 10:16:00,
2013-03-11 06:23:00,35.6,19.7,30.06,WSW,247,4.0,6.3,52,0.00,,---,0.00,VWS V12.07,2013-03-11 10:23:00,
2013-03-11 06:31:00,35.8,19.9,30.06,West,277,5.4,5.8,52,0.00,,---,0.00,VWS V12.07,2013-03-11 10:31:00,
2013-03-11 06:39:00,35.8,19.9,30.06,WSW,247,4.0,6.7,52,0.00,,---,0.00,VWS V12.07,2013-03-11 10:39:00,
2013-03-11 06:46:00,35.8,19.9,30.06,WSW,238,4.9,5.8,52,0.00,,---,0.00,VWS V12.07,2013-03-11 10:46:00,
2013-03-11 06:54:00,35.8,19.9,30.06,WSW,250,4.0,6.3,52,0.00,,---,0.00,VWS V12.07,2013-03-11 10:54:00,
2013-03-11 07:02:00,35.8,19.9,30.06,West,271,3.6,5.4,52,0.00,,---,0.00,VWS V12.07,2013-03-11 11:02:00,
2013-03-11 07:10:00,36.0,20.1,30.06,SW,218,5.8,6.3,52,0.00,,---,0.00,VWS V12.07,2013-03-11 11:10:00,
2013-03-11 07:18:00,36.0,20.1,30.06,West,265,2.7,5.4,52,0.00,,---,0.00,VWS V12.07,2013-03-11 11:18:00,
2013-03-11 07:25:00,36.0,20.1,30.06,SW,231,3.1,8.3,52,0.00,,---,0.00,VWS V12.07,2013-03-11 11:25:00,
2013-03-11 07:32:00,36.1,20.2,30.06,SW,225,3.6,3.6,52,0.00,,---,0.00,VWS V12.07,2013-03-11 11:32:00,
2013-03-11 07:40:00,36.1,20.2,30.06,SW,233,2.7,4.0,52,0.00,,---,0.00,VWS V12.07,2013-03-11 11:40:00,
2013-03-11 07:48:00,36.3,20.4,30.06,WSW,237,3.1,4.0,52,0.00,,---,0.00,VWS V12.07,2013-03-11 11:48:00,
2013-03-11 07:55:00,36.3,20.4,30.06,West,259,2.2,5.4,52,0.00,,---,0.00,VWS V12.07,2013-03-11 11:55:00,
2013-03-11 08:03:00,36.5,20.6,30.06,WSW,255,3.1,5.4,52,0.00,,---,0.00,VWS V12.07,2013-03-11 12:03:00,
2013-03-11 08:11:00,36.7,20.7,30.06,SW,222,3.1,6.3,52,0.00,,---,0.00,VWS V12.07,2013-03-11 12:11:00,
2013-03-11 08:19:00,36.7,20.3,30.06,WSW,250,3.6,5.8,51,0.00,,---,0.00,VWS V12.07,2013-03-11 12:19:00,
2013-03-11 08:27:00,36.9,20.4,30.06,WSW,250,2.7,5.8,51,0.00,,---,0.00,VWS V12.07,2013-03-11 12:27:00,
2013-03-11 08:35:00,37.0,20.6,30.06,SW,216,6.3,8.7,51,0.00,,---,0.00,VWS V12.07,2013-03-11 12:35:00,
2013-03-11 08:42:00,37.4,20.9,30.06,SW,219,3.6,8.7,51,0.00,,---,0.00,VWS V12.07,2013-03-11 12:42:00,
2013-03-11 08:50:00,37.6,20.6,30.06,West,270,2.2,8.1,50,0.00,,---,0.00,VWS V12.07,2013-03-11 12:50:00,
2013-03-11 08:58:00,37.8,20.8,30.06,WSW,251,4.0,8.1,50,0.00,,---,0.00,VWS V12.07,2013-03-11 12:58:00,
2013-03-11 09:10:00,38.5,21.5,30.06,WSW,239,5.4,5.8,50,0.00,,---,0.00,VWS V12.07,2013-03-11 13:10:00,
2013-03-11 09:17:00,39.6,22.0,30.06,WSW,241,4.0,4.9,49,0.00,,---,0.00,VWS V12.07,2013-03-11 13:17:00,
2013-03-11 09:26:00,40.3,22.2,30.06,West,270,8.1,8.1,48,0.00,,---,0.00,VWS V12.07,2013-03-11 13:26:00,
2013-03-11 09:34:00,41.2,20.9,30.06,West,273,3.6,6.3,44,0.00,,---,0.00,VWS V12.07,2013-03-11 13:34:00,
2013-03-11 09:42:00,41.9,21.0,30.06,SW,236,2.7,8.3,43,0.00,,---,0.00,VWS V12.07,2013-03-11 13:42:00,
2013-03-11 09:50:00,42.6,20.6,30.06,South,170,3.6,6.3,41,0.00,,---,0.00,VWS V12.07,2013-03-11 13:50:00,
2013-03-11 09:58:00,43.3,20.6,30.06,West,262,5.4,10.1,40,0.00,,---,0.00,VWS V12.07,2013-03-11 13:58:00,
2013-03-11 10:06:00,43.3,20.1,30.06,West,259,6.3,11.0,39,0.00,,---,0.00,VWS V12.07,2013-03-11 14:06:00,
2013-03-11 10:14:00,43.7,20.4,30.06,WSW,244,3.6,4.0,39,0.00,,---,0.00,VWS V12.07,2013-03-11 14:14:00,
2013-03-11 10:22:00,44.2,20.3,30.06,WSW,245,4.0,10.1,38,0.00,,---,0.00,VWS V12.07,2013-03-11 14:22:00,
2013-03-11 10:30:00,45.0,20.9,30.06,West,268,7.6,7.6,38,0.00,,---,0.00,VWS V12.07,2013-03-11 14:30:00,
2013-03-11 10:42:00,45.5,20.1,30.06,WSW,241,7.6,13.2,36,0.00,,---,0.00,VWS V12.07,2013-03-11 14:42:00,
2013-03-11 10:50:00,45.9,19.8,30.06,West,263,5.8,10.5,35,0.00,,---,0.00,VWS V12.07,2013-03-11 14:50:00,
2013-03-11 10:58:00,45.9,19.8,30.06,West,271,0.0,10.5,35,0.00,,---,0.00,VWS V12.07,2013-03-11 14:58:00,
2013-03-11 11:06:00,46.6,21.1,30.03,WSW,239,5.8,5.8,36,0.00,,---,0.00,VWS V12.07,2013-03-11 15:06:00,
2013-03-11 11:14:00,46.9,19.4,30.03,WSW,257,5.8,6.3,33,0.00,,---,0.00,VWS V12.07,2013-03-11 15:14:00,
2013-03-11 11:22:00,47.3,19.0,30.06,South,178,3.6,10.5,32,0.00,,---,0.00,VWS V12.07,2013-03-11 15:22:00,
2013-03-11 11:30:00,47.3,19.0,30.06,SW,226,3.1,6.3,32,0.00,,---,0.00,VWS V12.07,2013-03-11 15:30:00,
2013-03-11 11:38:00,47.5,19.1,30.03,SW,220,3.6,6.7,32,0.00,,---,0.00,VWS V12.07,2013-03-11 15:38:00,
2013-03-11 11:50:00,48.0,18.8,30.03,SSE,150,0.0,11.0,31,0.00,,---,0.00,VWS V12.07,2013-03-11 15:50:00,
2013-03-11 11:58:00,49.5,19.3,30.03,WSW,255,4.9,11.0,30,0.00,,---,0.00,VWS V12.07,2013-03-11 15:58:00,
2013-03-11 12:05:00,50.7,19.6,30.03,SSW,211,6.3,8.1,29,0.00,,---,0.00,VWS V12.07,2013-03-11 16:05:00,
2013-03-11 12:13:00,52.2,20.1,30.03,WSW,245,4.9,8.3,28,0.00,,---,0.00,VWS V12.07,2013-03-11 16:13:00,
2013-03-11 12:21:00,52.7,19.7,30.03,SSE,150,4.0,6.3,27,0.00,,---,0.00,VWS V12.07,2013-03-11 16:21:00,
2013-03-11 12:28:00,53.2,20.1,30.03,SE,144,2.7,7.2,27,0.00,,---,0.00,VWS V12.07,2013-03-11 16:28:00,
2013-03-11 12:36:00,54.1,20.0,30.03,SW,226,4.5,7.6,26,0.00,,---,0.00,VWS V12.07,2013-03-11 16:36:00,
2013-03-11 12:44:00,54.1,20.0,30.03,SE,129,4.0,5.4,26,0.00,,---,0.00,VWS V12.07,2013-03-11 16:44:00,
2013-03-11 12:52:00,53.8,19.7,30.03,WSW,256,8.1,8.7,26,0.00,,---,0.00,VWS V12.07,2013-03-11 16:52:00,
2013-03-11 13:00:00,53.2,19.3,30.03,West,260,3.6,5.8,26,0.00,,---,0.00,VWS V12.07,2013-03-11 17:00:00,
2013-03-11 13:08:00,53.1,19.1,30.03,WSW,253,4.9,5.8,26,0.00,,---,0.00,VWS V12.07,2013-03-11 17:08:00,
2013-03-11 13:15:00,53.1,19.1,30.03,WSW,245,4.0,4.9,26,0.00,,---,0.00,VWS V12.07,2013-03-11 17:15:00,
2013-03-11 13:23:00,52.5,18.6,30.03,SW,228,2.7,7.2,26,0.00,,---,0.00,VWS V12.07,2013-03-11 17:23:00,
2013-03-11 13:31:00,52.5,18.6,30.03,SE,143,4.5,4.5,26,0.00,,---,0.00,VWS V12.07,2013-03-11 17:31:00,
2013-03-11 13:39:00,52.9,19.8,30.03,WSW,239,2.7,4.9,27,0.00,,---,0.00,VWS V12.07,2013-03-11 17:39:00,
2013-03-11 13:47:00,53.1,20.0,30.03,SSW,208,5.4,5.4,27,0.00,,---,0.00,VWS V12.07,2013-03-11 17:47:00,
2013-03-11 14:00:00,52.7,19.7,30.00,SSE,162,3.1,5.8,27,0.00,,---,0.00,VWS V12.07,2013-03-11 18:00:00,
2013-03-11 14:07:00,52.7,19.7,30.00,SW,224,2.2,5.8,27,0.00,,---,0.00,VWS V12.07,2013-03-11 18:07:00,
2013-03-11 14:15:00,53.1,20.0,30.00,SSE,160,2.2,4.0,27,0.00,,---,0.00,VWS V12.07,2013-03-11 18:15:00,
2013-03-11 14:22:00,53.2,20.1,30.00,SSE,147,4.0,5.8,27,0.00,,---,0.00,VWS V12.07,2013-03-11 18:22:00,
2013-03-11 14:30:00,53.4,20.3,30.00,WSW,239,2.2,3.1,27,0.00,,---,0.00,VWS V12.07,2013-03-11 18:30:00,
2013-03-11 14:37:00,53.4,20.3,29.97,South,190,0.0,6.3,27,0.00,,---,0.00,VWS V12.07,2013-03-11 18:37:00,
2013-03-11 14:45:00,53.4,19.4,29.97,SSE,151,5.8,5.8,26,0.00,,---,0.00,VWS V12.07,2013-03-11 18:45:00,
2013-03-11 14:53:00,53.8,19.7,30.00,SSE,150,3.1,6.3,26,0.00,,---,0.00,VWS V12.07,2013-03-11 18:53:00,
2013-03-11 15:01:00,54.5,20.3,30.00,SW,219,3.6,5.4,26,0.00,,---,0.00,VWS V12.07,2013-03-11 19:01:00,
2013-03-11 15:09:00,54.9,20.6,29.97,SSE,167,3.1,6.3,26,0.00,,---,0.00,VWS V12.07,2013-03-11 19:09:00,
2013-03-11 15:17:00,54.9,20.6,29.97,SE,138,3.1,4.5,26,0.00,,---,0.00,VWS V12.07,2013-03-11 19:17:00,
2013-03-11 15:25:00,55.2,21.0,29.97,SW,223,3.6,6.7,26,0.00,,---,0.00,VWS V12.07,2013-03-11 19:25:00,
2013-03-11 15:33:00,55.4,21.1,29.97,ESE,122,3.6,5.8,26,0.00,,---,0.00,VWS V12.07,2013-03-11 19:33:00,
2013-03-11 15:41:00,55.0,20.8,29.97,West,273,2.7,5.8,26,0.00,,---,0.00,VWS V12.07,2013-03-11 19:41:00,
2013-03-11 15:49:00,54.5,20.3,29.97,SW,230,3.6,5.4,26,0.00,,---,0.00,VWS V12.07,2013-03-11 19:49:00,
2013-03-11 15:57:00,54.3,20.2,29.97,South,189,3.1,5.8,26,0.00,,---,0.00,VWS V12.07,2013-03-11 19:57:00,
2013-03-11 16:03:00,54.5,20.3,29.97,SSW,199,4.0,6.3,26,0.00,,---,0.00,VWS V12.07,2013-03-11 20:03:00,
2013-03-11 16:11:00,54.5,20.3,29.97,SW,215,4.0,6.3,26,0.00,,---,0.00,VWS V12.07,2013-03-11 20:11:00,
2013-03-11 16:19:00,54.7,20.5,29.97,ESE,114,6.3,6.3,26,0.00,,---,0.00,VWS V12.07,2013-03-11 20:19:00,
2013-03-11 16:27:00,54.9,20.6,29.97,West,262,4.0,6.3,26,0.00,,---,0.00,VWS V12.07,2013-03-11 20:27:00,
2013-03-11 16:34:00,54.7,20.5,29.97,SSW,198,3.1,5.4,26,0.00,,---,0.00,VWS V12.07,2013-03-11 20:34:00,
2013-03-11 16:42:00,54.5,20.3,29.97,SSW,204,3.1,5.8,26,0.00,,---,0.00,VWS V12.07,2013-03-11 20:42:00,
2013-03-11 16:50:00,54.0,19.9,29.97,SE,135,0.0,4.9,26,0.00,,---,0.00,VWS V12.07,2013-03-11 20:50:00,
2013-03-11 16:58:00,53.4,20.3,29.97,SSW,203,2.7,6.7,27,0.00,,---,0.00,VWS V12.07,2013-03-11 20:58:00,
2013-03-11 17:06:00,53.1,20.0,29.97,SW,236,3.6,4.0,27,0.00,,---,0.00,VWS V12.07,2013-03-11 21:06:00,
2013-03-11 17:14:00,52.7,19.7,29.97,WSW,245,4.9,8.7,27,0.00,,---,0.00,VWS V12.07,2013-03-11 21:14:00,
2013-03-11 17:22:00,52.3,19.4,29.97,SW,224,4.0,8.7,27,0.00,,---,0.00,VWS V12.07,2013-03-11 21:22:00,
2013-03-11 17:29:00,52.2,19.2,29.97,WSW,246,3.6,5.8,27,0.00,,---,0.00,VWS V12.07,2013-03-11 21:29:00,
2013-03-11 17:37:00,52.0,19.9,29.97,WSW,243,3.1,5.8,28,0.00,,---,0.00,VWS V12.07,2013-03-11 21:37:00,
2013-03-11 17:45:00,51.6,19.6,29.97,SW,232,4.0,5.8,28,0.00,,---,0.00,VWS V12.07,2013-03-11 21:45:00,
2013-03-11 17:53:00,51.1,20.0,29.97,SSW,213,4.0,5.8,29,0.00,,---,0.00,VWS V12.07,2013-03-11 21:53:00,
2013-03-11 18:01:00,50.7,19.6,29.97,WSW,248,6.3,8.1,29,0.00,,---,0.00,VWS V12.07,2013-03-11 22:01:00,
2013-03-11 18:09:00,50.4,20.1,29.97,WSW,245,3.6,8.1,30,0.00,,---,0.00,VWS V12.07,2013-03-11 22:09:00,
2013-03-11 18:17:00,50.2,20.0,29.97,WSW,251,6.3,6.3,30,0.00,,---,0.00,VWS V12.07,2013-03-11 22:17:00,
2013-03-11 18:25:00,49.6,19.5,29.97,WSW,242,3.6,6.3,30,0.00,,---,0.00,VWS V12.07,2013-03-11 22:25:00,
2013-03-11 18:33:00,48.9,19.6,29.97,SW,228,7.6,7.6,31,0.00,,---,0.00,VWS V12.07,2013-03-11 22:33:00,
2013-03-11 18:40:00,48.6,20.1,29.97,SSW,205,4.9,7.6,32,0.00,,---,0.00,VWS V12.07,2013-03-11 22:40:00,
2013-03-11 18:48:00,48.2,20.5,29.97,WNW,294,0.0,3.6,33,0.00,,---,0.00,VWS V12.07,2013-03-11 22:48:00,
2013-03-11 18:56:00,47.8,21.5,29.94,SW,235,3.6,5.8,35,0.00,,---,0.00,VWS V12.07,2013-03-11 22:56:00,
2013-03-11 19:04:00,47.5,21.9,29.97,SW,221,5.4,5.8,36,0.00,,---,0.00,VWS V12.07,2013-03-11 23:04:00,
2013-03-11 19:12:00,47.3,22.4,29.97,SW,235,2.7,5.8,37,0.00,,---,0.00,VWS V12.07,2013-03-11 23:12:00,
2013-03-11 19:20:00,47.1,22.2,29.97,SSW,211,5.4,5.8,37,0.00,,---,0.00,VWS V12.07,2013-03-11 23:20:00,
2013-03-11 19:28:00,47.1,22.2,29.97,WSW,244,2.7,8.3,37,0.00,,---,0.00,VWS V12.07,2013-03-11 23:28:00,
2013-03-11 19:35:00,46.9,22.7,29.97,SE,133,3.1,7.6,38,0.00,,---,0.00,VWS V12.07,2013-03-11 23:35:00,
2013-03-11 19:42:00,46.8,22.5,29.97,WSW,247,4.0,8.1,38,0.00,,---,0.00,VWS V12.07,2013-03-11 23:42:00,
2013-03-11 19:50:00,46.8,22.5,29.97,WSW,252,4.9,5.8,38,0.00,,---,0.00,VWS V12.07,2013-03-11 23:50:00,
2013-03-11 19:58:00,46.6,22.4,29.97,SW,220,2.7,5.8,38,0.00,,---,0.00,VWS V12.07,2013-03-11 23:58:00,
2013-03-11 20:05:00,46.6,23.0,29.97,SW,217,3.1,4.9,39,0.00,,---,0.00,VWS V12.07,2013-03-12 00:05:00,
2013-03-11 20:13:00,46.4,22.8,29.97,WSW,245,4.0,6.3,39,0.00,,---,0.00,VWS V12.07,2013-03-12 00:13:00,
2013-03-11 20:20:00,46.2,23.2,29.97,SW,236,5.8,6.3,40,0.00,,---,0.00,VWS V12.07,2013-03-12 00:20:00,
2013-03-11 20:27:00,46.0,23.7,29.97,SW,217,5.4,6.3,41,0.00,,---,0.00,VWS V12.07,2013-03-12 00:27:00,
2013-03-11 20:35:00,45.9,23.5,29.97,SW,225,3.6,5.8,41,0.00,,---,0.00,VWS V12.07,2013-03-12 00:35:00,
2013-03-11 20:43:00,45.9,24.1,29.97,SSE,167,2.7,5.8,42,0.00,,---,0.00,VWS V12.07,2013-03-12 00:43:00,
2013-03-11 20:50:00,45.7,23.9,29.97,SW,235,3.6,5.4,42,0.00,,---,0.00,VWS V12.07,2013-03-12 00:50:00,
2013-03-11 20:57:00,45.7,23.9,29.97,SSE,162,2.7,5.4,42,0.00,,---,0.00,VWS V12.07,2013-03-12 00:57:00,
2013-03-11 21:05:00,45.5,24.3,29.97,SW,228,3.6,4.0,43,0.00,,---,0.00,VWS V12.07,2013-03-12 01:05:00,
2013-03-11 21:13:00,45.3,24.2,29.97,West,265,4.9,8.3,43,0.00,,---,0.00,VWS V12.07,2013-03-12 01:13:00,
2013-03-11 21:21:00,45.1,24.5,29.97,SSE,160,2.7,6.7,44,0.00,,---,0.00,VWS V12.07,2013-03-12 01:21:00,
2013-03-11 21:29:00,45.0,24.4,29.97,SW,233,2.7,5.4,44,0.00,,---,0.00,VWS V12.07,2013-03-12 01:29:00,
2013-03-11 21:37:00,45.0,24.9,29.97,WSW,249,3.6,5.8,45,0.00,,---,0.00,VWS V12.07,2013-03-12 01:37:00,
2013-03-11 21:45:00,44.8,25.3,29.97,SW,236,4.0,4.9,46,0.00,,---,0.00,VWS V12.07,2013-03-12 01:45:00,
2013-03-11 21:53:00,44.8,25.3,29.97,SW,232,3.6,5.8,46,0.00,,---,0.00,VWS V12.07,2013-03-12 01:53:00,
2013-03-11 22:01:00,44.6,25.6,29.97,WSW,241,4.0,4.0,47,0.00,,---,0.00,VWS V12.07,2013-03-12 02:01:00,
2013-03-11 22:09:00,44.6,25.6,29.97,WSW,243,2.7,4.0,47,0.00,,---,0.00,VWS V12.07,2013-03-12 02:09:00,
2013-03-11 22:15:00,44.6,25.6,29.97,WSW,241,2.7,3.6,47,0.00,,---,0.00,VWS V12.07,2013-03-12 02:15:00,
2013-03-11 22:23:00,44.6,25.6,29.94,WSW,242,3.1,4.0,47,0.00,,---,0.00,VWS V12.07,2013-03-12 02:23:00,
2013-03-11 22:35:00,44.4,26.0,29.97,SW,233,3.1,5.8,48,0.00,,---,0.00,VWS V12.07,2013-03-12 02:35:00,
2013-03-11 22:43:00,44.4,26.0,29.97,SW,226,2.2,5.8,48,0.00,,---,0.00,VWS V12.07,2013-03-12 02:43:00,
2013-03-11 22:51:00,44.2,26.3,29.94,WNW,296,2.7,4.0,49,0.00,,---,0.00,VWS V12.07,2013-03-12 02:51:00,
2013-03-11 22:59:00,44.1,26.1,29.94,West,277,2.2,3.1,49,0.00,,---,0.00,VWS V12.07,2013-03-12 02:59:00,
2013-03-11 23:07:00,44.1,26.1,29.94,SW,231,0.0,4.0,49,0.00,,---,0.00,VWS V12.07,2013-03-12 03:07:00,
2013-03-11 23:14:00,44.1,26.1,29.94,SW,232,0.0,0.0,49,0.00,,---,0.00,VWS V12.07,2013-03-12 03:14:00,
2013-03-11 23:22:00,43.9,26.0,29.94,SW,232,0.0,2.2,49,0.00,,---,0.00,VWS V12.07,2013-03-12 03:22:00,
2013-03-11 23:30:00,43.9,26.0,29.94,SSE,150,2.7,4.0,49,0.00,,---,0.00,VWS V12.07,2013-03-12 03:30:00,
2013-03-11 23:38:00,43.9,26.5,29.94,SW,231,0.0,4.0,50,0.00,,---,0.00,VWS V12.07,2013-03-12 03:38:00,
2013-03-11 23:50:00,43.7,26.3,29.97,West,270,4.0,4.0,50,0.00,,---,0.00,VWS V12.07,2013-03-12 03:50:00,
2013-03-11 23:58:00,43.5,26.1,29.97,SSW,208,3.1,4.0,50,0.00,,---,0.00,VWS V12.07,2013-03-12 03:58:00,